| time (UTC) | temp C | wind direction | speed KPH | gust KPH | rain 1hr cm | rain 24hr cm | rain mn cm | humidity % | barometer mb |
| 20260505124556 | 21 | 141 | 3.2 | 16.1 | 0.00 | 0.00 | 0.00 | 86 | 1004.8 |
| 20260505123046 | 21 | 129 | 6.4 | 22.5 | 0.00 | 0.00 | 0.00 | 86 | 1004.6 |
| 20260505121547 | 21 | 80 | 4.8 | 17.7 | 0.00 | 0.00 | 0.00 | 86 | 1004.6 |
| 20260505120049 | 21 | 302 | 8.0 | 17.7 | 0.00 | 0.00 | 0.00 | 86 | 1004.5 |
| 20260505114545 | 21 | 104 | 4.8 | 16.1 | 0.00 | 0.00 | 0.00 | 86 | 1004.3 |
| 20260505113040 | 21 | 265 | 4.8 | 19.3 | 0.00 | 0.00 | 0.00 | 86 | 1004.0 |
| 20260505111539 | 21 | 233 | 4.8 | 16.1 | 0.00 | 0.00 | 0.00 | 86 | 1004.2 |
| 20260505101542 | 21 | 227 | 6.4 | 16.1 | 0.00 | 0.00 | 0.00 | 86 | 1004.2 |
| 20260505100033 | 21 | 110 | 4.8 | 16.1 | 0.00 | 0.00 | 0.00 | 86 | 1004.5 |
| 20260505094532 | 21 | 225 | 4.8 | 14.5 | 0.00 | 0.00 | 0.00 | 86 | 1004.6 |
| 20260505093031 | 21 | 137 | 6.4 | 20.9 | 0.00 | 0.00 | 0.00 | 85 | 1004.8 |
| 20260505091530 | 21 | 259 | 6.4 | 22.5 | 0.00 | 0.00 | 0.00 | 86 | 1004.6 |
| 20260505090028 | 21 | 257 | 8.0 | 20.9 | 0.00 | 0.00 | 0.00 | 86 | 1004.6 |
| 20260505084535 | 21 | 353 | 4.8 | 16.1 | 0.00 | 0.00 | 0.00 | 85 | 1004.5 |
| 20260505083027 | 21 | 255 | 8.0 | 22.5 | 0.00 | 0.00 | 0.00 | 85 | 1004.6 |
| 20260505081523 | 21 | 231 | 4.8 | 17.7 | 0.00 | 0.00 | 0.00 | 85 | 1004.6 |
| 20260505080021 | 21 | 154 | 6.4 | 16.1 | 0.00 | 0.00 | 0.00 | 85 | 1004.8 |
| 20260505074518 | 21 | 230 | 6.4 | 20.9 | 0.00 | 0.00 | 0.00 | 85 | 1005.0 |
| 20260505073025 | 21 | 200 | 4.8 | 20.9 | 0.00 | 0.00 | 0.00 | 84 | 1005.4 |
| 20260505071514 | 21 | 110 | 4.8 | 20.9 | 0.00 | 0.00 | 0.00 | 84 | 1005.6 |
| 20260505070017 | 21 | 84 | 4.8 | 22.5 | 0.00 | 0.00 | 0.00 | 83 | 1005.8 |
| 20260505064510 | 21 | 242 | 6.4 | 20.9 | 0.00 | 0.00 | 0.00 | 83 | 1005.6 |
| 20260505063011 | 21 | 178 | 6.4 | 16.1 | 0.00 | 0.00 | 0.00 | 82 | 1005.8 |
| 20260505061507 | 21 | 207 | 6.4 | 24.1 | 0.00 | 0.00 | 0.00 | 81 | 1005.9 |
| 20260505060007 | 21 | 127 | 3.2 | 20.9 | 0.00 | 0.00 | 0.00 | 81 | 1006.1 |
| 20260505054503 | 21 | 264 | 8.0 | 22.5 | 0.00 | 0.00 | 0.00 | 81 | 1006.1 |
| 20260505053002 | 22 | 142 | 4.8 | 17.7 | 0.00 | 0.00 | 0.00 | 80 | 1006.2 |
| 20260505051600 | 22 | 57 | 3.2 | 17.7 | 0.00 | 0.00 | 0.00 | 80 | 1006.4 |
| 20260505041559 | 22 | 158 | 3.2 | 9.7 | 0.00 | 0.00 | 0.00 | 78 | 1006.7 |
| 20260505040056 | 22 | 96 | 3.2 | 9.7 | 0.00 | 0.00 | 0.00 | 77 | 1006.6 |
| 20260505034553 | 22 | 154 | 3.2 | 8.0 | 0.00 | 0.00 | 0.00 | 77 | 1006.7 |
| 20260505033053 | 22 | 222 | 4.8 | 12.9 | 0.00 | 0.00 | 0.00 | 77 | 1006.9 |
| 20260505031603 | 22 | 289 | 3.2 | 9.7 | 0.00 | 0.00 | 0.00 | 76 | 1006.8 |
| 20260505030052 | 22 | 106 | 3.2 | 11.3 | 0.00 | 0.00 | 0.00 | 76 | 1006.9 |
| 20260505024559 | 22 | 140 | 3.2 | 8.0 | 0.00 | 0.00 | 0.00 | 75 | 1006.7 |
| 20260505023050 | 22 | 185 | 3.2 | 8.0 | 0.00 | 0.00 | 0.00 | 75 | 1006.6 |
| 20260505021553 | 22 | 120 | 1.6 | 12.9 | 0.00 | 0.00 | 0.00 | 73 | 1006.6 |
| 20260505020049 | 23 | 143 | 3.2 | 8.0 | 0.00 | 0.00 | 0.00 | 72 | 1006.5 |
| 20260505014603 | 23 | 156 | 3.2 | 16.1 | 0.00 | 0.00 | 0.00 | 71 | 1006.6 |
| 20260505013050 | 23 | 91 | 3.2 | 12.9 | 0.00 | 0.00 | 0.00 | 70 | 1006.4 |
| 20260505011556 | 24 | 248 | 3.2 | 9.7 | 0.00 | 0.00 | 0.00 | 69 | 1006.5 |
| 20260505010045 | 24 | 200 | 4.8 | 12.9 | 0.00 | 0.00 | 0.00 | 68 | 1006.5 |
| 20260505004545 | 25 | 262 | 4.8 | 16.1 | 0.00 | 0.00 | 0.00 | 66 | 1006.6 |
| 20260505003045 | 25 | 238 | 4.8 | 14.5 | 0.00 | 0.00 | 0.00 | 66 | 1006.6 |
| 20260505001544 | 25 | 281 | 3.2 | 17.7 | 0.00 | 0.00 | 0.00 | 65 | 1006.6 |
| 20260505000054 | 26 | 90 | 3.2 | 27.4 | 0.00 | 0.00 | 0.00 | 64 | 1006.7 |
| 20260504234547 | 26 | 139 | 6.4 | 24.1 | 0.00 | 0.00 | 0.00 | 63 | 1006.8 |
| 20260504233101 | 26 | 249 | 9.7 | 20.9 | 0.00 | 0.00 | 0.00 | 62 | 1006.7 |
| 20260504231543 | 26 | 198 | 3.2 | 16.1 | 0.00 | 0.00 | 0.00 | 61 | 1006.9 |
| 20260504230039 | 27 | 243 | 9.7 | 24.1 | 0.00 | 0.00 | 0.00 | 59 | 1007.1 |
| 20260504224540 | 27 | 269 | 8.0 | 19.3 | 0.00 | 0.00 | 0.00 | 59 | 1007.2 |
| 20260504223053 | 27 | 175 | 8.0 | 30.6 | 0.00 | 0.00 | 0.00 | 59 | 1007.1 |
| 20260504221536 | 27 | 232 | 8.0 | 20.9 | 0.00 | 0.00 | 0.00 | 58 | 1007.3 |
| 20260504220032 | 27 | 326 | 6.4 | 20.9 | 0.00 | 0.00 | 0.00 | 57 | 1007.4 |
| 20260504214531 | 27 | 71 | 6.4 | 20.9 | 0.00 | 0.00 | 0.00 | 57 | 1007.7 |
| 20260504213040 | 27 | 245 | 6.4 | 24.1 | 0.00 | 0.00 | 0.00 | 58 | 1008.0 |
| 20260504211532 | 27 | 127 | 9.7 | 27.4 | 0.00 | 0.00 | 0.00 | 55 | 1008.4 |
| 20260504210024 | 27 | 195 | 6.4 | 22.5 | 0.00 | 0.00 | 0.00 | 55 | 1008.6 |
| 20260504204535 | 27 | 144 | 8.0 | 27.4 | 0.00 | 0.00 | 0.00 | 54 | 1008.9 |
| 20260504203024 | 27 | 301 | 6.4 | 20.9 | 0.00 | 0.00 | 0.00 | 54 | 1009.1 |
| 20260504201518 | 27 | 236 | 11.3 | 27.4 | 0.00 | 0.00 | 0.00 | 53 | 1009.5 |
| 20260504200015 | 27 | 205 | 8.0 | 19.3 | 0.00 | 0.00 | 0.00 | 54 | 1009.8 |
| 20260504194513 | 27 | 252 | 9.7 | 24.1 | 0.00 | 0.00 | 0.00 | 53 | 1010.1 |
| 20260504193010 | 26 | 239 | 6.4 | 22.5 | 0.00 | 0.00 | 0.00 | 54 | 1010.3 |
| 20260504191509 | 27 | 228 | 6.4 | 19.3 | 0.00 | 0.00 | 0.00 | 52 | 1010.6 |
| 20260504190006 | 26 | 112 | 11.3 | 30.6 | 0.00 | 0.00 | 0.00 | 50 | 1010.5 |
| 20260504184504 | 26 | 274 | 4.8 | 33.8 | 0.00 | 0.00 | 0.00 | 51 | 1010.7 |
| 20260504183002 | 26 | 244 | 9.7 | 27.4 | 0.00 | 0.00 | 0.00 | 50 | 1011.1 |
| 20260504181603 | 25 | 263 | 6.4 | 17.7 | 0.00 | 0.00 | 0.00 | 51 | 1011.1 |
| 20260504180058 | 26 | 121 | 6.4 | 22.5 | 0.00 | 0.00 | 0.00 | 51 | 1011.2 |
| 20260504174604 | 25 | 209 | 4.8 | 25.7 | 0.00 | 0.00 | 0.00 | 53 | 1011.5 |
| 20260504173052 | 25 | 167 | 8.0 | 24.1 | 0.00 | 0.00 | 0.00 | 52 | 1011.9 |
| 20260504171552 | 24 | 220 | 8.0 | 27.4 | 0.00 | 0.00 | 0.00 | 52 | 1012.3 |